Location: Unspecified
(51.0000°N, 12.0000°E)
Time: 22:19:37
(UTC+01:00)

ISS - Pass Details

Date: 05 December 2020
Orbit: 418 x 419 km, 51.6° (Epoch: 18 January)

Event Time Altitude Azimuth Distance (km) Brightness Sun altitude
Rises 17:21:48 0° 284° (WNW) 2,371 1.0 -11.2°
Reaches altitude 10° 17:23:55 10° 281° (WNW) 1,505 0.0 -11.5°
Maximum altitude 17:27:15 66° 200° (SSW) 463 -3.4 -12.0°
Enters shadow 17:30:25 11° 118° (ESE) 1,422 -1.5 -12.4°
